User: anonymous   Login
Location: Asheville, NC
(35.6000°N, 82.5500°W)
Time: 02:35:30
(UTC-04:00)
Language:

LilacSat-2 - Orbit

View from above orbital plane
View from above orbital plane
View from above satellite
View from above satellite

Ground track
Ground track

The orbit data is extracted from the following two-line orbital elements,

1 40908U 15049K   18198.82149486  .00000312  00000-0  21043-4 0  9999
2 40908  97.4686 200.7647 0014404 285.5574  74.4067 15.13540297156005
Epoch (UTC): 17 July 2018 19:42:57
Eccentricity: 0.0014404
inclination: 97.4686°
perigee height: 515 km
apogee height: 535 km
right ascension of ascending node: 200.7647°
argument of perigee: 285.5574°
revolutions per day: 15.13540297
mean anomaly at epoch: 74.4067°
orbit number at epoch: 15600

The dashed part of the orbit path shows where the satellite is in the earth's shadow,  

DLR